User: anonymous   Login
Location: Unspecified
(0.0000°N, 0.0000°E)
Time: 19:02:59
(UTC+00:00)
Language:

SUPERVIEW NEO-2 04 - Orbit

View from above orbital plane
View from above orbital plane
View from above satellite
View from above satellite

Ground track
Ground track

The orbit is defined by the following mean orbital elements,

1 62080U          26145.40144380 +.00000000 +00000-0 +13646-4 0 00005
2 62080  97.4393 153.0618 0001290 113.1506 246.9865 15.19719372    01
Epoch (UTC): 25 May 2026 09:38:04
Eccentricity: 0.0001290
inclination: 97.4393°
perigee height: 506 km
apogee height: 508 km
right ascension of ascending node: 153.0618°
argument of perigee: 113.1506°
revolutions per day: 15.19719372
mean anomaly at epoch: 246.9865°

The dashed part of the orbit path shows where the satellite is in the earth's shadow,  

DLR